Location: ?????????
(53.2086°N, 54.0693°E)
Time: 00:15:51
(UTC+00:00)

ATLAS 2AS CENTAUR R/B - Pass Details

Date: 08 December 2019
Orbit: 927 x 1285 km, 63.7° (Epoch: 19 January)

Event Time Altitude Azimuth Distance (km) Brightness Sun altitude
Rises 12:49:34 0° 213° (SSW) 4,202 7.1 -6.1°
Reaches altitude 10° 12:52:20 10° 212° (SSW) 3,259 6.4 -6.5°
Maximum altitude 13:00:16 72° 130° (SE) 1,343 3.2 -7.5°
Drops below altitude 10° 13:08:12 10° 48° (NE) 3,254 4.6 -8.6°
Enters shadow 13:08:31 - 48° (NE) 3,358 4.7 -8.6°
